Content
SEND FEEDBACK

Daily
Averages
Monthly
Summary
Canada

MONTREAL, QUEBEC


Home > North America > Canada > Quebec
Elevation: 35 meters     Latitude: 45 28N     Longitude: 073 45W

WEATHER
 
SELECT A DAY
Number of Records: 198,844;   Date Range: 1/1/95 - 9/21/14
 
SHARE

PRINT THIS DATA

[ ← Previous Day ]
WEATHER ALMANAC - 25 FEBRUARY, 2013
[ Next Day → ]
[ °F ]   °C
Weather ElementAverageHighLow
Temperature0.1 °C2 °C (2:27 pm)-1.1 °C (7:00 am)
Dewpoint-1.2 °C0 °C (3:00 pm)-2.2 °C (7:00 am)
Humidity91.3 %100 % (8:00 pm)80 % (1:00 pm)
Barometer1020.3 hPa1024.4 hPa (10:40 pm)1015.2 hPa (12:18 am)
Wind Speed5.1 km/h11.1 km/h (3:00 pm)
Weather ElementAverage
Visibility11.6 km
Wind DirectionSW (226.8 °)

Weather ElementTotal
Precipitation---
Heating Degree Days17.9 (Base 18.3)
Averaged from 37 records on 25 February, 2013
WEATHER CONDITIONS BREAKOUT
WIND DIRECTION BREAKOUT
WEATHER BY HOUR - 25 FEBRUARY, 2013
[ °F ]   °C
Local TimeTemperatureDewpointHumidityBarometerVisibilityWind DirectionWind SpeedGust SpeedPrecipitationEventsConditions
12:18 AM0 °C-1 °C93 %1015.2 hPa16.1 kmNorth (360°)5.6 km/hSnowLight Snow
12:48 AM0 °C-1 °C93 %1015.6 hPa16.1 kmNW (310°)5.6 km/hSnowLight Snow
1:00 AM0 °C-1.1 °C87 %1015.9 hPa16.1 kmNW (310°)3.7 km/hSnowLight Snow
1:00 AM0 °C-1 °C93 %1015.6 hPa16.1 kmNW (310°)3.7 km/hSnowLight Snow
1:38 AM0 °C-1 °C93 %1015.9 hPa16.1 kmWest (280°)7.4 km/hSnowLight Snow
2:00 AM0 °C-1 °C93 %1016.3 hPa16.1 kmNNW (330°)7.4 km/hSnowLight Snow
3:00 AM0 °C-2 °C87 %1016.6 hPa19.3 kmNorth (360°)7.4 km/hSnowLight Snow
3:53 AM-1 °C-2 °C93 %1017.3 hPa19.3 kmNorth (350°)7.4 km/hSnowLight Snow
4:00 AM-1 °C-2 °C93 %1017.3 hPa19.3 kmNorth (350°)7.4 km/hSnowSnow
5:00 AM-1 °C-2 °C93 %1017.9 hPa19.3 kmNNW (340°)9.3 km/hSnowLight Snow
6:00 AM-1 °C-2 °C93 %1018.3 hPa24.1 kmNorth (350°)7.4 km/hSnowLight Snow
7:00 AM-1.1 °C-2.2 °C90 %1019.3 hPa11.3 kmNNW (330°)5.6 km/hSnowLight Snow
7:00 AM-1 °C-2 °C93 %1019.3 hPa12.9 kmNNW (340°)7.4 km/hSnowLight Snow
8:00 AM-1 °C-2 °C93 %1019.6 hPa12.9 kmNorth (360°)7.4 km/hSnowLight Snow
9:00 AM-1 °C-2 °C93 %1020 hPa12.9 kmNNE (30°)5.6 km/hSnowLight Snow
10:00 AM0 °C-2 °C87 %1020.7 hPa8 kmNorth (360°)5.6 km/hSnowLight Snow
10:47 AM0 °C-2 °C87 %1021 hPa6.4 kmNNW (330°)3.7 km/hSnowLight Snow
11:00 AM0 °C-2 °C87 %1021 hPa6.4 kmCalmSnowLight Snow
12:00 PM1 °C-2 °C81 %1021.3 hPa6.4 kmCalmSnowLight Snow
1:00 PM1.1 °C-1.1 °C80 %1021.3 hPa6.4 kmWest (280°)5.6 km/hSnowLight Snow
1:00 PM1 °C-1 °C87 %1021.3 hPa6.4 kmWNW (290°)5.6 km/hSnowLight Snow
1:29 PM1 °C-1 °C87 %1021.3 hPa8 kmCalmSnowLight Snow
2:00 PM1 °C-1 °C87 %1021.3 hPa8 kmCalmSnowLight Snow
2:27 PM2 °C-1 °C81 %1021.7 hPa9.7 kmVariable3.7 km/hSnowLight Snow
3:00 PM1 °C0 °C93 %1022 hPa8 kmSW (230°)11.1 km/hSnowLight Snow
4:00 PM1 °C0 °C93 %1022.4 hPa9.7 kmSW (230°)7.4 km/hSnowLight Snow
5:00 PM1 °C0 °C93 %1022.7 hPa12.9 kmWSW (240°)3.7 km/hOvercast
6:00 PM1 °C0 °C93 %1023 hPa11.3 kmCalmOvercast
7:00 PM0 °C-1 °C93 %1023.7 hPa12.9 kmSW (220°)5.6 km/hOvercast
7:00 PM0.6 °C-0.6 °C89 %1023.7 hPa11.3 kmSW (220°)7.4 km/hPartly Cloudy
7:42 PM0 °C-1 °C93 %1024 hPa9.7 kmSW (220°)5.6 km/hSnowLight Snow
8:00 PM0 °C0 °C100 %1024 hPa9.7 kmSW (220°)5.6 km/hSnowLight Snow
9:00 PM0 °C-1 °C93 %1024 hPa9.7 kmSW (220°)5.6 km/hSnowLight Snow
10:00 PM0 °C0 °C100 %1024 hPa6.4 kmSouth (180°)3.7 km/hSnowLight Snow
10:40 PM-1 °C-1 °C100 %1024.4 hPa4.8 kmSW (230°)5.6 km/hSnowLight Snow
11:00 PM0 °C0 °C100 %1024.4 hPa4 kmSSW (210°)5.6 km/hSnowLight Snow
11:39 PM0 °C-1 °C93 %1024.4 hPa4.8 kmCalmOvercast
Hourly data recorded from CYUL, located 0 kilometers away from Montreal, Quebec







STORIES FROM OUR PARTNERS